Regional Weather Roundup
Issued by NWS

Home | Current Version | Previous Version | Text Only | Print | Product List | Glossary Off
Versions: 1 2 3 4 5 6 7 8 9 10 11 12 13 14 15 16 17 18 19 20 21 22 23 24 25 26 27 28 29 30 31 32 33 34 35 36 37 38 39 40 41 42 43 44 45 46 47 48 49 50

000
ASUS43 KMPX 282210
RWRMN
WEATHER ROUNDUP FOR MINNESOTA
NATIONAL WEATHER SERVICE TWIN CITIES/CHANHASSEN MN
500 PM CDT SUN MAY 28 2017


NOTE: "FAIR" INDICATES FEW OR NO CLOUDS BELOW 12,000 FEET WITH NO
SIGNIFICANT WEATHER AND/OR OBSTRUCTIONS TO VISIBILITY. N/A MEANS
CURRENT SKY AND/OR WEATHER CONDITIONS ARE NOT AVAILABLE.

MNZ060>063-068>070-282300-
   Twin Cities Metro

CITY           SKY/WX    TMP DP  RH WIND       PRES   REMARKS
TWIN CITIES    PTSUNNY   68  45  43 NW24G43   29.73R
ST PAUL        PTSUNNY   67  46  47 NW28G46   29.73R
CRYSTAL        CLOUDY    63  46  54 W12       29.72R
BLAINE         PTSUNNY   64  46  52 W16G28    29.74R
LAKEVILLE      MOSUNNY   70  45  40 NW17      29.73S
EDEN PRAIRIE   PTSUNNY   67  45  45 NW16G25   29.73R
SOUTH ST PAUL  PTSUNNY   71  41  33 W20G29    29.71S
LAKE ELMO      FAIR      70  45  40 W20G29    29.72R
$$
MNZ001>005-007-008-013>017-022>024-027-028-282300-
   Northwest Minnesota

CITY           SKY/WX    TMP DP  RH WIND       PRES   REMARKS
BEMIDJI        CLOUDY    58  45  60 W20G25    29.70S
HALLOCK        PTSUNNY   61  46  59 NW21G31   29.71R
ROSEAU         RAIN      54  48  82 NW13      29.68R
WARROAD        PTSUNNY   59  48  67 W8G16     29.66S
THIEF RVR FALL CLOUDY    59  49  69 W14       29.70S
CROOKSTON      PTSUNNY   59  54  82 NW9       29.72F
FOSSTON        CLOUDY    57  48  72 NW10G20   29.72S
DETROIT LAKES  CLOUDY    55  46  71 N9        29.76S
MOORHEAD       PTSUNNY   61  48  63 N10       29.77R
PARK RAPIDS    LGT RAIN  52  44  74 N13       29.73R
MAHNOMEN       FAIR      58  51  76 NW13      29.73F
$$
MNZ006-009>011-018-025>026-282300-
   North Central Minnesota

CITY           SKY/WX    TMP DP  RH WIND       PRES   REMARKS
BAUDETTE       CLOUDY    59  54  83 N8        29.64S
FLAG ISLAND    HVY RAIN  55  50  82 W9        29.64S
INTL FALLS     LGT RAIN  57  50  77 NE5       29.61S
WASKISH        CLOUDY    61  48  63 W9        29.66S
BIG FORK       DRIZZLE   55  52  88 SW3       29.66F
LONGVILLE      PTSUNNY   61  46  59 W9        29.69S
GRAND RAPIDS   LGT RAIN  53  51  93 NW5       29.70S
CRANE LAKE     LGT RAIN  52  50  93 CALM      29.64F
ORR            CLOUDY    63  45  51 NW9       29.61R
COOK           CLOUDY    59  46  63 W12G17    29.63S
WALKER         LGT RAIN  54  49  81 W9G16     29.71R
$$
MNZ012-019>021-037-282300-
   Northeast Minnesota

CITY           SKY/WX    TMP DP  RH WIND       PRES   REMARKS
DULUTH         CLOUDY    63  48  58 NW14G25   29.65R
ELY            CLOUDY    54  52  94 W5        29.62F
HIBBING        LGT RAIN  53  52  96 W8        29.65S
EVELETH        CLOUDY    58  47  68 W16G22    29.66R
DULUTH HARBOR  CLOUDY    63  48  59 W20G28    29.65R
TWO HARBORS    RAIN      54  48  82 CALM      29.63S
SILVER BAY     PTSUNNY   59  54  82 SW3       29.62S
GRAND MARAIS     N/A     51  49  92 SW5       29.63S
G MARAIS ARPRT CLOUDY    52  46  82 S5        29.64F
$$
MNZ029>031-032-039>041-046>048-054>057-064-282300-
   West Central Minnesota

CITY           SKY/WX    TMP DP  RH WIND       PRES   REMARKS
FERGUS FALLS   MOSUNNY   70  43  37 NW18G25   29.70F
WHEATON        RAIN      61  45  55 W40G52    29.81R
MORRIS         SUNNY     72  39  30 NW20G25   29.74S
ALEXANDRIA     MOSUNNY   67  44  43 NW10G26   29.75F
ELBOW LAKE     PTSUNNY   67  41  38 NW18      29.74F
WADENA         CLOUDY    63  46  55 N24G36    29.74R
GLENWOOD       MOSUNNY   70  46  43 NW18G26   29.76R
APPLETON       MOSUNNY   73  32  21 NW20G28   29.76S
BENSON         MOSUNNY   73  37  27 N14G26    29.76F
ORTONVILLE     MOSUNNY   70  37  30 W13G24    29.78S
MADISON        SUNNY     75  39  27 NW18G31   29.78S
WILLMAR        FAIR      72  43  35 W16G26    29.76S
$$
MNZ033>034-036-042>043-049>051-058-059-282300-
   Central Minnesota

CITY           SKY/WX    TMP DP  RH WIND       PRES   REMARKS
ST CLOUD       MOSUNNY   67  48  50 W20G28    29.73S
SAUK CENTRE    FAIR      68  46  45 W15G29    29.75S
PAYNESVILLE    MOSUNNY   70  44  39 W18G26    29.75F
AITKIN         SUNNY     63  48  59 NW6       29.69F
PINE RIVER     PTSUNNY   63  48  59 NW10G18   29.74S
BRAINERD       MOSUNNY   64  47  53 NW9       29.70F
STAPLES        LGT RAIN  57  46  67 NW13G20   29.73R
LONG PRAIRIE   FAIR      64  43  45 W21       29.75S
LITTLE FALLS   CLOUDY    63  46  55 W13       29.73S
LITCHFIELD     SUNNY     70  48  46 NW13G18   29.76S
BUFFALO        CLOUDY    64  47  54 W9        29.76F
MAPLE LAKE     CLOUDY    66  52  60 W8        29.75F
HUTCHINSON     SUNNY     70  49  47 NW13      29.76F
$$
MNZ037-044-045-052-053-282300-
   East Central Minnesota

CITY           SKY/WX    TMP DP  RH WIND       PRES   REMARKS
PRINCETON      MOSUNNY   68  46  45 W16G22    29.73S
MORA           CLOUDY    55  50  82 NW5       29.74S
CAMBRIDGE      PTSUNNY   64  52  63 W9        29.71S
RUSH CITY      CLOUDY    58  53  84 NW3       29.72F
MOOSE LAKE     MOSUNNY   61  50  67 W9G17     29.68F
HINCKLEY       MOCLDY    57  52  82 W6        29.71F
CLOQUET        MOSUNNY   61  46  59 W14G23    29.66F
MCGREGOR       PTSUNNY   61  48  63 NW9       29.70F
$$
MNZ071>073-080-081-089-090-097-098-282300-
   Southwest Minnesota

CITY           SKY/WX    TMP DP  RH WIND       PRES   REMARKS
MONTEVIDEO     SUNNY     73  39  29 NW15G30   29.77S
CANBY          MOSUNNY   72  40  30 NW20G32   29.82S
MARSHALL       MOSUNNY   74  42  31 NW21G30   29.80S
REDWOOD FALLS  MOSUNNY   73  40  30 NW18G30   29.77F
OLIVIA         SUNNY     70  41  35 NW20G29   29.76S
PIPESTONE      SUNNY     72  25  17 NW15G32   29.85S
WINDOM         MOSUNNY   73  36  25 W30G38    29.80F
WORTHINGTON    MOSUNNY   71  40  32 NW22G32   29.84S
JACKSON        MOSUNNY   73  37  27 W18G28    29.82S
TRACY          SUNNY     74  40  30 NW24G31   29.82S
SLAYTON        MOSUNNY   71  38  29 W21G35    29.83F
$$
MNZ065>067-074>077-082>085-091>093-282300-
   South Central Minnesota

CITY           SKY/WX    TMP DP  RH WIND       PRES   REMARKS
MANKATO        MOSUNNY   73  43  33 W17       29.76
NEW ULM        MOSUNNY   72  43  35 NW20      29.76F
ST JAMES       SUNNY     73  39  29 W20G25    29.79S
FAIRMONT       PTSUNNY   74  41  30 NW23G32   29.79F
GLENCOE        MOSUNNY   70  50  49 NW16G22   29.75S
FARIBAULT      PTSUNNY   72  45  37 W14G22    29.75F
OWATONNA       MOSUNNY   73  39  29 W22G33    29.76F
WASECA         CLOUDY    72  41  33 W22G29    29.77F
ALBERT LEA     PTSUNNY   73  41  31 NW13G23   29.77F
$$
MNZ078>079-086>088-094>096-282300-
   Southeast Minnesota

CITY           SKY/WX    TMP DP  RH WIND       PRES   REMARKS
ROCHESTER      MOSUNNY   71  42  35 W23       29.75F
RED WING       MOSUNNY   73  37  27 W10G20    29.70F
STANTON        PTSUNNY   71  42  35 W20G26    29.72F
DODGE CENTER   MOSUNNY   70  41  35 W15       29.76F
WINONA         MOSUNNY   73  43  33 NW20G26   29.73S
AUSTIN         MOSUNNY   72  41  33 NW15G23   29.76F
PRESTON        PTSUNNY   70  41  35 NW22G31   29.77S
$$
ABBREVIATIONS USED IN REMARKS
   TC - TEMPERATURES IN CELSIUS
  WCI - WIND CHILL INDEX
   HX - HEAT INDEX
  VSB - VISIBILITY
$$




USA.gov is the U.S. government's official web portal to all federal, state and local government web resources and services.